[[{"header":{"parameterUnit":"m.s-1","parameterCategory":1,"la1":30.2991,"la2":30.254,"lo1":-89.0895,"lo2":-89.0444,"dy":0.0017,"dx":0.0017,"nx":28,"ny":28,"refTime":"2024-08-11T15:00:00:Z","depth":0,"parameterNumber":2,"parameterNumberName":"U-component_of_WINDS"},"data":[0,0,0,0,0,0,0,0,0,0,0,0,0,0,0,0,0,0,0,0,0,0,0,0,0,0,0,0,0,0,0,0,0,0,0,0,0,0,0,0,0,0,0,0,0,0,0,0,0,0,0,0,0,0,0,0,0,0,0.2797,0.2796,0,0.2705,0.2704,0.2702,0.258,0.2578,0.2576,0.2574,0.2481,0.2481,0.248,0,0,0,0,0,0,0,0,0,0,0,0,0,0.2871,0.2871,0.2797,0.2796,0.2795,0.2705,0.2703,0.2702,0.258,0.2577,0.2575,0.2573,0.2482,0.2481,0.248,0,0,0,0,0,0,0,0,0,0,0,0,0,0.2815,0.2871,0.2797,0.2723,0.2715,0.2705,0.2703,0.2702,0.258,0.2577,0.2574,0.2571,0.2482,0.2481,0.248,0.2536,0,0,0.2478,0.2477,0,0,0,0,0,0,0,0,0.2819,0.2813,0.2735,0.2728,0.2719,0.265,0.2696,0.2646,0.2581,0.2632,0.2574,0.257,0.254,0.2535,0.2524,0.2532,0.2528,0.2478,0.2477,0.2477,0.2477,0,0,0,0,0,0,0,0.2823,0.2816,0.2761,0.2734,0.2725,0.2695,0.2684,0.2686,0.2604,0.2627,0.2618,0.2609,0.2536,0.2525,0.2521,0.2527,0.2478,0.2477,0.2476,0.2476,0.2577,0.258,0,0,0,0,0,0,0.2837,0.282,0.2763,0.2758,0.2762,0.2696,0.2684,0.2676,0.2604,0.259,0.2611,0.2603,0.2528,0.2522,0.2517,0.2578,0.2477,0.2476,0.2476,0.2574,0.2578,0.2581,0,0,0,0,0,0,0.2839,0.2833,0.2767,0.2786,0.2776,0.2698,0.269,0.2676,0.2665,0.2592,0.2577,0.2615,0.2525,0.2518,0.2532,0.2573,0.2476,0.2475,0.257,0.2575,0.258,0.2702,0,0,0,0,0,0,0.2842,0.2835,0.2854,0.2788,0.2775,0.2784,0.2693,0.2676,0.2663,0.2652,0.2592,0.2579,0.2522,0.2534,0.2532,0.2571,0.2474,0.2566,0.2572,0.2578,0.2693,0.271,0.2724,0,0,0,0,0,0.2845,0.2893,0.2856,0.285,0.2798,0.2786,0.2779,0.2712,0.2667,0.2687,0.264,0.2581,0.257,0.2537,0.2533,0.2572,0.2563,0.2571,0.2578,0.2687,0.2707,0.2724,0,0,0,0,0,0,0.2967,0.2883,0.2841,0.2868,0.2835,0.2765,0.2788,0.2735,0.2715,0.2705,0.2624,0.2611,0.2636,0.2605,0.257,0.2623,0.2558,0.2564,0.2642,0.266,0.2675,0.2682,0.2474,0,0,0,0,0,0.2997,0.2993,0.292,0.2952,0.2937,0.2866,0.2858,0.281,0.2772,0.2758,0.2712,0.2679,0.2668,0.2663,0.2648,0.2689,0.2674,0.2714,0.2729,0.2742,0.2749,0.2769,0.2786,0.2605,0.2605,0.2605,0,0,0.3059,0.3012,0.3015,0.2975,0.2943,0.2943,0.2855,0.2857,0.2856,0.2758,0.2769,0.2735,0.2693,0.272,0.273,0.2696,0.2796,0.2751,0.2762,0.2761,0.2778,0.2795,0.281,0.261,0.2609,0.2608,0,0,0.3171,0.3136,0.3158,0.3129,0.3082,0.3034,0.304,0.2979,0.2952,0.2961,0.2888,0.2886,0.2868,0.2842,0.2826,0.293,0.2875,0.2928,0.3007,0.3028,0.3042,0.3055,0.3092,0.3107,0.2935,0.2935,0.2936,0,0.3254,0.3249,0.3176,0.3184,0.3169,0.308,0.3103,0.3078,0.303,0.3022,0.2984,0.2961,0.2926,0.2947,0.2973,0.2963,0.2967,0.2934,0.3046,0.3057,0.3068,0.3103,0.3117,0.2942,0.2941,0.2941,0.294,0,0.3354,0.3352,0.3376,0.3331,0.3319,0.3334,0.3265,0.3262,0.3215,0.3172,0.3183,0.3139,0.3114,0.3116,0.307,0.3131,0.3111,0.3061,0.2993,0.3093,0.3125,0.3138,0.2952,0.2949,0.2947,0.2946,0,0,0.3539,0.3455,0.3465,0.3444,0.3387,0.3385,0.3397,0.3372,0.3371,0.3342,0.3351,0.3339,0.3292,0.3274,0.3225,0.3243,0.333,0.319,0.3188,0.3218,0.3395,0.3433,0.345,0.3293,0.3295,0.3297,0.3398,0,0.3641,0.3656,0.3591,0.3623,0.3621,0.3538,0.3548,0.3515,0.3476,0.347,0.3426,0.3419,0.3358,0.3347,0.3361,0.3316,0.3364,0.3308,0.3301,0.3302,0.3314,0.3466,0.3506,0.3603,0.341,0.3412,0.3414,0,0.3761,0.3738,0.377,0.3712,0.3709,0.3719,0.3692,0.3687,0.3648,0.3619,0.36,0.3543,0.3552,0.3488,0.35,0.3464,0.3457,0.3435,0.3437,0.3434,0.3364,0.3467,0.3633,0.3648,0.3432,0.3431,0.343,0,0.3894,0.387,0.3886,0.3871,0.3804,0.3814,0.3787,0.3745,0.3735,0.3712,0.3705,0.3684,0.3673,0.3658,0.3598,0.3557,0.3617,0.3548,0.3594,0.3595,0.361,0.361,0.3777,0.3606,0.3606,0.3606,0.3605,0,0.4014,0.4037,0.3945,0.3955,0.3979,0.3906,0.3932,0.3896,0.386,0.3863,0.379,0.3794,0.3714,0.371,0.3663,0.368,0.3676,0.3653,0.364,0.3659,0.3662,0.3654,0.3646,0.3609,0.3609,0.3608,0.3607,0,0.4166,0.4105,0.4117,0.4053,0.4038,0.4058,0.4004,0.4011,0.3968,0.3972,0.3969,0.3902,0.3893,0.3831,0.3809,0.3777,0.3813,0.3786,0.3826,0.3817,0.3866,0.3863,0.4034,0.4053,0.3871,0.3872,0.3874,0,0.4246,0.4262,0.42,0.4196,0.4172,0.4167,0.4156,0.4086,0.4078,0.4036,0.4049,0.4034,0.4019,0.4009,0.3959,0.3942,0.3915,0.3976,0.3912,0.3931,0.3916,0.3916,0.3918,0.399,0.3992,0.3994,0.3996,0,0.4396,0.4365,0.4352,0.433,0.4319,0.4298,0.4273,0.4274,0.4196,0.4192,0.4181,0.417,0.4147,0.4134,0.4108,0.4081,0.4026,0.4017,0.4026,0.4046,0.4068,0.4057,0.3863,0.4013,0.4011,0.401,0.4009,0.4008,0.4514,0.4525,0.4483,0.4472,0.4445,0.4423,0.4427,0.4385,0.4375,0.4351,0.431,0.4306,0.4269,0.4229,0.4206,0.4203,0.4171,0.4185,0.4188,0.4193,0.4204,0.4069,0.4198,0.4198,0.4197,0.4197,0.4196,0,0.466,0.463,0.462,0.4587,0.4579,0.4527,0.4497,0.4493,0.4491,0.446,0.4447,0.4436,0.4424,0.4373,0.4355,0.4362,0.4337,0.436,0.4359,0.4354,0.4233,0.4227,0.4381,0.4381,0.4381,0.4381,0.4381,0.4381,0.4736,0.4751,0.4716,0.4718,0.4687,0.4683,0.467,0.465,0.4625,0.4617,0.4606,0.4572,0.4534,0.4513,0.45,0.4485,0.4482,0.4514,0.4491,0.438,0.4362,0.4345,0.4338,0.4514,0.4514,0.4612,0.4613,0.4614]},{"header":{"parameterUnit":"m.s-1","parameterCategory":1,"la1":30.2991,"la2":30.254,"lo1":-89.0895,"lo2":-89.0444,"dy":0.0017,"dx":0.0017,"nx":28,"ny":28,"refTime":"2024-08-11T15:00:00:Z","depth":0,"parameterNumber":3,"parameterNumberName":"V-component_of_WINDS"},"data":[0,0,0,0,0,0,0,0,0,0,0,0,0,0,0,0,0,0,0,0,0,0,0,0,0,0,0,0,0,0,0,0,0,0,0,0,0,0,0,0,0,0,0,0,0,0,0,0,0,0,0,0,0,0,0,0,0,0,-0.7822,-0.7822,0,-0.7784,-0.7784,-0.7783,-0.7733,-0.7732,-0.7732,-0.7731,-0.7691,-0.7691,-0.7691,0,0,0,0,0,0,0,0,0,0,0,0,0,-0.7853,-0.7853,-0.7822,-0.7822,-0.7822,-0.7784,-0.7784,-0.7783,-0.7733,-0.7732,-0.7731,-0.773,-0.7692,-0.7691,-0.7691,0,0,0,0,0,0,0,0,0,0,0,0,0,-0.783,-0.7853,-0.7823,-0.7792,-0.7789,-0.7785,-0.7784,-0.7783,-0.7734,-0.7732,-0.7731,-0.773,-0.7692,-0.7691,-0.7691,-0.7713,0,0,-0.769,-0.7689,0,0,0,0,0,0,0,0,-0.7831,-0.7829,-0.7797,-0.7794,-0.7791,-0.7762,-0.778,-0.776,-0.7734,-0.7755,-0.7731,-0.7729,-0.7716,-0.7714,-0.7709,-0.7711,-0.771,-0.769,-0.7689,-0.7689,-0.7689,0,0,0,0,0,0,0,-0.7833,-0.783,-0.7807,-0.7797,-0.7793,-0.7781,-0.7776,-0.7776,-0.7743,-0.7753,-0.7749,-0.7745,-0.7714,-0.771,-0.7708,-0.7709,-0.769,-0.7689,-0.7689,-0.7689,-0.773,-0.7731,0,0,0,0,0,0,-0.7839,-0.7832,-0.7809,-0.7806,-0.7808,-0.7781,-0.7776,-0.7773,-0.7743,-0.7737,-0.7746,-0.7743,-0.7711,-0.7708,-0.7706,-0.7732,-0.7689,-0.7689,-0.7689,-0.7729,-0.773,-0.7732,0,0,0,0,0,0,-0.784,-0.7837,-0.781,-0.7818,-0.7814,-0.7782,-0.7779,-0.7773,-0.7768,-0.7738,-0.7732,-0.7748,-0.771,-0.7707,-0.7712,-0.773,-0.7689,-0.7688,-0.7727,-0.7729,-0.7731,-0.7783,0,0,0,0,0,0,-0.7841,-0.7838,-0.7846,-0.7819,-0.7813,-0.7817,-0.778,-0.7773,-0.7767,-0.7763,-0.7738,-0.7732,-0.7709,-0.7713,-0.7712,-0.7728,-0.7688,-0.7725,-0.7728,-0.773,-0.7779,-0.7786,-0.7792,0,0,0,0,0,-0.7842,-0.7861,-0.7846,-0.7844,-0.7822,-0.7818,-0.7815,-0.7787,-0.7769,-0.7777,-0.7758,-0.7733,-0.7728,-0.7714,-0.7712,-0.7729,-0.7724,-0.7727,-0.773,-0.7776,-0.7785,-0.7792,0,0,0,0,0,0,-0.789,-0.7857,-0.784,-0.7851,-0.7838,-0.7809,-0.7818,-0.7797,-0.7788,-0.7784,-0.7751,-0.7745,-0.7756,-0.7743,-0.7728,-0.775,-0.7723,-0.7725,-0.7758,-0.7766,-0.7772,-0.7776,-0.7688,0,0,0,0,0,-0.7902,-0.7901,-0.7872,-0.7884,-0.7879,-0.785,-0.7847,-0.7827,-0.7812,-0.7806,-0.7787,-0.7773,-0.7769,-0.7767,-0.7761,-0.7777,-0.7772,-0.7788,-0.7794,-0.78,-0.7803,-0.7813,-0.782,-0.7742,-0.7742,-0.7742,0,0,-0.7927,-0.7909,-0.791,-0.7894,-0.7881,-0.7882,-0.7845,-0.7847,-0.7847,-0.7806,-0.7811,-0.7797,-0.7779,-0.7791,-0.7795,-0.7781,-0.7823,-0.7804,-0.7808,-0.7808,-0.7817,-0.7824,-0.7831,-0.7744,-0.7743,-0.7743,0,0,-0.7972,-0.7958,-0.7967,-0.7956,-0.7938,-0.7919,-0.7921,-0.7896,-0.7886,-0.789,-0.786,-0.786,-0.7852,-0.7842,-0.7836,-0.788,-0.7857,-0.7878,-0.7912,-0.7922,-0.7928,-0.7934,-0.7951,-0.7957,-0.7881,-0.7882,-0.7882,0,-0.8005,-0.8004,-0.7975,-0.7979,-0.7973,-0.7937,-0.7947,-0.7938,-0.7918,-0.7916,-0.79,-0.7891,-0.7877,-0.7887,-0.7898,-0.7893,-0.7896,-0.7881,-0.793,-0.7935,-0.7939,-0.7955,-0.7962,-0.7884,-0.7884,-0.7884,-0.7883,0,-0.8046,-0.8046,-0.8056,-0.804,-0.8035,-0.8042,-0.8015,-0.8014,-0.7995,-0.7978,-0.7984,-0.7966,-0.7957,-0.7957,-0.7938,-0.7965,-0.7957,-0.7936,-0.7908,-0.795,-0.7965,-0.7971,-0.7888,-0.7887,-0.7887,-0.7886,0,0,-0.8119,-0.8088,-0.8092,-0.8085,-0.8064,-0.8063,-0.8069,-0.8061,-0.8062,-0.805,-0.8055,-0.8051,-0.8032,-0.8025,-0.8005,-0.8014,-0.8052,-0.7991,-0.7991,-0.8005,-0.8082,-0.8099,-0.8107,-0.8037,-0.8038,-0.8038,-0.8084,0,-0.8161,-0.817,-0.8145,-0.816,-0.8161,-0.8128,-0.8133,-0.8121,-0.8106,-0.8105,-0.8088,-0.8086,-0.806,-0.8056,-0.8063,-0.8046,-0.8067,-0.8042,-0.8042,-0.8042,-0.8048,-0.8114,-0.8131,-0.8175,-0.809,-0.809,-0.8091,0,-0.8211,-0.8203,-0.8219,-0.8198,-0.8198,-0.8203,-0.8195,-0.8193,-0.818,-0.8168,-0.8162,-0.8139,-0.8144,-0.8117,-0.8125,-0.8109,-0.8107,-0.8099,-0.81,-0.81,-0.807,-0.8117,-0.8188,-0.8196,-0.81,-0.8099,-0.8098,0,-0.8265,-0.8258,-0.8267,-0.8262,-0.8238,-0.8243,-0.8233,-0.8218,-0.8215,-0.8208,-0.8206,-0.8199,-0.8196,-0.8192,-0.8168,-0.815,-0.818,-0.815,-0.8171,-0.8172,-0.8179,-0.8179,-0.8253,-0.8177,-0.8177,-0.8177,-0.8176,0,-0.8314,-0.8326,-0.8292,-0.8297,-0.831,-0.8281,-0.8294,-0.8281,-0.8268,-0.8272,-0.8242,-0.8246,-0.8214,-0.8215,-0.8196,-0.8207,-0.8205,-0.8197,-0.8192,-0.82,-0.8201,-0.8199,-0.8196,-0.8178,-0.8178,-0.8178,-0.8177,0,-0.8377,-0.8354,-0.8362,-0.8339,-0.8334,-0.8344,-0.8325,-0.833,-0.8314,-0.8318,-0.8318,-0.8292,-0.8292,-0.8268,-0.8261,-0.8249,-0.8268,-0.8257,-0.8273,-0.827,-0.8293,-0.8292,-0.8369,-0.8379,-0.8295,-0.8296,-0.8297,0,-0.841,-0.8419,-0.8397,-0.8398,-0.839,-0.839,-0.8388,-0.8361,-0.836,-0.8346,-0.8353,-0.835,-0.8346,-0.8347,-0.8328,-0.8324,-0.8314,-0.8341,-0.8313,-0.8321,-0.8316,-0.8316,-0.8318,-0.8347,-0.8348,-0.8349,-0.835,0,-0.8473,-0.8462,-0.846,-0.8454,-0.8453,-0.8447,-0.8439,-0.8441,-0.8412,-0.8412,-0.8412,-0.8409,-0.8404,-0.8402,-0.8395,-0.8385,-0.8364,-0.8359,-0.8364,-0.8373,-0.8382,-0.8379,-0.8291,-0.8357,-0.8357,-0.8356,-0.8356,-0.8355,-0.8523,-0.8529,-0.8516,-0.8515,-0.8507,-0.8501,-0.8505,-0.849,-0.849,-0.8484,-0.8468,-0.8471,-0.8458,-0.8447,-0.8439,-0.8441,-0.8428,-0.8434,-0.8436,-0.8439,-0.8444,-0.8382,-0.844,-0.844,-0.8439,-0.8439,-0.8439,0,-0.8585,-0.8576,-0.8575,-0.8566,-0.8566,-0.8546,-0.8537,-0.8538,-0.8541,-0.8532,-0.8529,-0.853,-0.8529,-0.8511,-0.8507,-0.8513,-0.8503,-0.8513,-0.8513,-0.8511,-0.8456,-0.8452,-0.8521,-0.8521,-0.8521,-0.8521,-0.8521,-0.8521,-0.8618,-0.8629,-0.8617,-0.8624,-0.8614,-0.8617,-0.8614,-0.8609,-0.8601,-0.8604,-0.8603,-0.8591,-0.8579,-0.8575,-0.8573,-0.8568,-0.8569,-0.8583,-0.8574,-0.8523,-0.8515,-0.8507,-0.8504,-0.8583,-0.8583,-0.863,-0.863,-0.863]}]]